IRIDIUM 70 [-]

Last updated on Oct. 12, 2018, 12:08 a.m. UTC

1 25342U 98032A   18284.21707279  .16594638 -12525-5  18070-3 0  9998
2 25342  86.5503  21.7232 0063640 282.3994  77.0197 16.42517631 68335

Satellite is not in orbit.